GW5867 Weather Reports


time (UTC)temp
C
wind
direction
speed
KPH
gust
KPH
rain 1hr
cm
rain 24hr
cm
rain mn
cm
humidity
%
barometer
mb
20260505125004 15 178 8.0 19.3 0.00 0.00 0.00 66 1010.1
20260505124512 15 181 8.0 19.3 0.00 0.00 0.00 66 1010.0
20260505124007 15 176 6.4 19.3 0.00 0.00 0.00 66 1010.0
20260505123504 15 188 8.0 19.3 0.00 0.00 0.00 65 1010.0
20260505123013 14 192 9.7 20.9 0.00 0.00 0.00 66 1010.1
20260505122503 14 150 11.3 22.5 0.00 0.00 0.00 66 1010.3
20260505122003 14 221 14.5 22.5 0.00 0.00 0.00 66 1010.4
20260505121531 14 194 8.0 20.9 0.00 0.00 0.00 66 1010.3
20260505121007 13 190 12.9 19.3 0.00 0.00 0.00 66 1010.2
20260505120512 13 180 11.3 17.7 0.00 0.00 0.00 67 1010.2
20260505120020 13 204 11.3 17.7 0.00 0.00 0.00 67 1010.3
20260505115502 13 176 9.7 16.1 0.00 0.00 0.00 67 1010.4
20260505115003 13 211 9.7 19.3 0.00 0.00 0.00 67 1010.5
20260505114503 13 188 9.7 17.7 0.00 0.00 0.00 67 1010.5
20260505114011 13 234 9.7 20.9 0.00 0.00 0.00 67 1010.3
20260505113504 13 185 11.3 20.9 0.00 0.00 0.00 67 1010.3
20260505113012 13 178 9.7 22.5 0.00 0.00 0.00 68 1010.4
20260505112505 13 189 12.9 22.5 0.00 0.00 0.00 68 1010.4
20260505112003 12 217 11.3 19.3 0.00 0.00 0.00 69 1010.4
20260505111513 12 167 9.7 22.5 0.00 0.00 0.00 69 1010.5
20260505111008 12 232 14.5 22.5 0.00 0.00 0.00 69 1010.4
20260505110510 12 203 12.9 19.3 0.00 0.00 0.00 69 1010.3
20260505102004 12 181 9.7 17.7 0.00 0.00 0.00 69 1009.8
20260505101516 11 198 11.3 17.7 0.00 0.00 0.00 69 1009.7
20260505101009 11 223 9.7 16.1 0.00 0.00 0.00 69 1009.7
20260505100503 11 217 8.0 12.9 0.00 0.00 0.00 69 1009.6
20260505100018 11 213 6.4 12.9 0.00 0.00 0.00 69 1009.5
20260505095508 11 182 6.4 16.1 0.00 0.00 0.00 69 1009.5
20260505095006 11 194 8.0 16.1 0.00 0.00 0.00 69 1009.5
20260505094522 11 209 9.7 16.1 0.00 0.00 0.00 69 1009.4
20260505094010 11 198 9.7 17.7 0.00 0.00 0.00 69 1009.3
20260505093508 11 201 11.3 17.7 0.00 0.00 0.00 69 1009.4
20260505093026 11 173 6.4 16.1 0.00 0.00 0.00 69 1009.5
20260505092503 11 190 4.8 12.9 0.00 0.00 0.00 69 1009.5
20260505092003 11 192 6.4 12.9 0.00 0.00 0.00 69 1009.5
20260505091513 11 195 6.4 12.9 0.00 0.00 0.00 69 1009.4
20260505091004 11 172 8.0 11.3 0.00 0.00 0.00 69 1009.5
20260505090503 12 180 6.4 11.3 0.00 0.00 0.00 68 1009.4
20260505090034 12 184 6.4 12.9 0.00 0.00 0.00 68 1009.4
20260505085504 12 187 6.4 12.9 0.00 0.00 0.00 68 1009.4
20260505085008 12 209 6.4 12.9 0.00 0.00 0.00 68 1009.6
20260505084522 12 148 8.0 14.5 0.00 0.00 0.00 67 1009.6
20260505084010 12 207 8.0 14.5 0.00 0.00 0.00 67 1009.6
20260505083513 12 204 6.4 12.9 0.00 0.00 0.00 67 1009.7
20260505083024 12 193 6.4 16.1 0.00 0.00 0.00 67 1009.7
20260505082512 12 186 9.7 16.1 0.00 0.00 0.00 67 1009.7
20260505082008 12 210 8.0 11.3 0.00 0.00 0.00 66 1009.6
20260505081507 12 187 8.0 14.5 0.00 0.00 0.00 66 1009.7
20260505081003 12 202 6.4 17.7 0.00 0.00 0.00 66 1009.7
20260505080502 12 194 9.7 17.7 0.00 0.00 0.00 65 1009.7
20260505080035 12 211 9.7 17.7 0.00 0.00 0.00 65 1009.8
20260505075503 12 190 6.4 14.5 0.00 0.00 0.00 65 1009.8
20260505075007 12 222 6.4 14.5 0.00 0.00 0.00 64 1009.8
20260505074525 12 196 6.4 14.5 0.00 0.00 0.00 64 1009.8
20260505074008 12 198 8.0 12.9 0.00 0.00 0.00 64 1009.7
20260505073505 12 203 8.0 17.7 0.00 0.00 0.00 63 1009.7
20260505073031 12 190 9.7 17.7 0.00 0.00 0.00 63 1009.7
20260505072506 12 217 9.7 17.7 0.00 0.00 0.00 63 1009.6
20260505072005 12 193 9.7 20.9 0.00 0.00 0.00 62 1009.6
20260505071533 12 195 8.0 20.9 0.00 0.00 0.00 61 1009.7
20260505071009 12 213 4.8 12.9 0.00 0.00 0.00 61 1009.7
20260505070509 12 200 6.4 16.1 0.00 0.00 0.00 61 1009.8
20260505070014 12 213 9.7 20.9 0.00 0.00 0.00 61 1009.7
20260505065503 12 212 8.0 20.9 0.00 0.00 0.00 61 1009.7
20260505065006 12 187 12.9 19.3 0.00 0.00 0.00 61 1009.6
20260505064520 12 207 8.0 19.3 0.00 0.00 0.00 61 1009.6
20260505064006 12 171 8.0 19.3 0.00 0.00 0.00 62 1009.7
20260505063506 12 159 9.7 24.1 0.00 0.00 0.00 62 1009.7
20260505063024 12 214 11.3 22.5 0.00 0.00 0.00 62 1009.7
20260505062509 12 193 9.7 16.1 0.00 0.00 0.00 63 1009.8
20260505062006 12 180 6.4 14.5 0.00 0.00 0.00 64 1009.8
20260505061528 12 180 8.0 14.5 0.00 0.00 0.00 63 1009.9
20260505061006 12 182 6.4 11.3 0.00 0.00 0.00 63 1009.9
20260505060511 12 172 4.8 11.3 0.00 0.00 0.00 62 1009.9
20260505060034 12 197 4.8 16.1 0.00 0.00 0.00 62 1010.0
20260505055511 12 157 8.0 16.1 0.00 0.00 0.00 61 1010.0
20260505055003 12 187 8.0 19.3 0.00 0.00 0.00 62 1010.1
20260505054514 12 155 9.7 19.3 0.00 0.00 0.00 62 1010.1
20260505054007 12 205 6.4 17.7 0.00 0.00 0.00 62 1010.2
20260505053507 12 207 11.3 22.5 0.00 0.00 0.00 63 1010.2
20260505053024 12 194 9.7 22.5 0.00 0.00 0.00 63 1010.1
20260505052506 12 192 6.4 17.7 0.00 0.00 0.00 63 1010.2
20260505052005 12 161 8.0 17.7 0.00 0.00 0.00 63 1010.2
20260505051524 12 179 6.4 11.3 0.00 0.00 0.00 63 1010.2
20260505051008 12 222 8.0 16.1 0.00 0.00 0.00 62 1010.3
20260505050509 12 208 9.7 22.5 0.00 0.00 0.00 63 1010.3
20260505041522 11 180 8.0 17.7 0.00 0.00 0.00 68 1010.5
20260505041006 11 186 8.0 17.7 0.00 0.00 0.00 69 1010.5
20260505040507 11 156 6.4 12.9 0.00 0.00 0.00 69 1010.5
20260505040025 10 188 6.4 19.3 0.00 0.00 0.00 70 1010.5
20260505035511 10 190 8.0 19.3 0.00 0.00 0.00 70 1010.5
20260505035012 10 205 6.4 14.5 0.00 0.00 0.00 70 1010.5
20260505034528 10 180 6.4 14.5 0.00 0.00 0.00 70 1010.4
20260505034007 10 202 4.8 12.9 0.00 0.00 0.00 70 1010.5
20260505033511 11 179 4.8 11.3 0.00 0.00 0.00 69 1010.5
20260505033035 11 181 3.2 9.7 0.00 0.00 0.00 69 1010.5
20260505032509 11 178 3.2 14.5 0.00 0.00 0.00 68 1010.5
20260505032005 11 163 4.8 12.9 0.00 0.00 0.00 68 1010.5
20260505031520 11 188 3.2 8.0 0.00 0.00 0.00 68 1010.6
20260505031010 11 173 6.4 9.7 0.00 0.00 0.00 67 1010.6
20260505030507 11 202 3.2 9.7 0.00 0.00 0.00 67 1010.6
20260505030026 11 178 6.4 14.5 0.00 0.00 0.00 66 1010.6
20260505025507 11 165 8.0 16.1 0.00 0.00 0.00 66 1010.6
20260505025008 11 176 8.0 16.1 0.00 0.00 0.00 65 1010.6
20260505024543 11 191 9.7 16.1 0.00 0.00 0.00 65 1010.5
20260505024010 11 213 8.0 14.5 0.00 0.00 0.00 65 1010.5
20260505023504 11 205 4.8 9.7 0.00 0.00 0.00 65 1010.5
20260505023012 12 210 4.8 11.3 0.00 0.00 0.00 64 1010.6
20260505022503 12 173 6.4 17.7 0.00 0.00 0.00 64 1010.6
20260505022011 12 209 9.7 17.7 0.00 0.00 0.00 64 1010.5
20260505021519 12 198 9.7 14.5 0.00 0.00 0.00 64 1010.6
20260505021004 12 191 8.0 14.5 0.00 0.00 0.00 63 1010.6
20260505020504 12 209 6.4 14.5 0.00 0.00 0.00 63 1010.6
20260505020022 12 187 8.0 14.5 0.00 0.00 0.00 63 1010.6
20260505015509 12 181 4.8 14.5 0.00 0.00 0.00 62 1010.6
20260505015008 12 186 6.4 14.5 0.00 0.00 0.00 62 1010.6
20260505014534 12 189 6.4 14.5 0.00 0.00 0.00 61 1010.4
20260505014007 12 184 6.4 14.5 0.00 0.00 0.00 61 1010.4
20260505013510 12 192 8.0 11.3 0.00 0.00 0.00 60 1010.4
20260505013027 12 211 6.4 11.3 0.00 0.00 0.00 60 1010.4
20260505012504 13 207 6.4 14.5 0.00 0.00 0.00 60 1010.3
20260505012004 13 236 8.0 14.5 0.00 0.00 0.00 59 1010.2
20260505011515 13 192 4.8 11.3 0.00 0.00 0.00 59 1010.2
20260505011005 13 207 3.2 11.3 0.00 0.00 0.00 59 1010.2
20260505010507 13 188 8.0 11.3 0.00 0.00 0.00 58 1010.1
20260505010022 13 227 6.4 12.9 0.00 0.00 0.00 57 1009.9
20260505005508 13 221 6.4 12.9 0.00 0.00 0.00 57 1009.8
20260505005009 13 175 6.4 14.5 0.00 0.00 0.00 57 1009.7
20260505004526 14 184 6.4 14.5 0.00 0.00 0.00 56 1009.6
20260505004009 14 195 9.7 19.3 0.00 0.00 0.00 55 1009.5
20260505003510 14 210 9.7 19.3 0.00 0.00 0.00 55 1009.4
20260505003027 14 182 9.7 19.3 0.00 0.00 0.00 55 1009.3
20260505002509 14 200 8.0 17.7 0.00 0.00 0.00 54 1009.2
20260505002007 15 186 8.0 22.5 0.00 0.00 0.00 54 1009.1
20260505001529 15 203 9.7 22.5 0.00 0.00 0.00 54 1009.0
20260505001004 15 167 6.4 20.9 0.00 0.00 0.00 54 1009.0
20260505000504 15 213 8.0 20.9 0.00 0.00 0.00 53 1008.9
20260505000016 15 169 9.7 22.5 0.00 0.00 0.00 52 1008.9
20260504235504 16 210 12.9 24.1 0.00 0.00 0.00 50 1008.8
20260504235005 16 239 11.3 24.1 0.00 0.00 0.00 49 1008.8
20260504234521 16 235 8.0 27.4 0.00 0.00 0.00 47 1008.8
20260504234013 16 176 11.3 25.7 0.00 0.00 0.00 43 1008.7
20260504233510 17 171 3.2 11.3 0.00 0.00 0.00 44 1008.6
20260504233028 17 217 4.8 11.3 0.00 0.00 0.00 41 1008.5
20260504232506 17 217 4.8 16.1 0.00 0.00 0.00 40 1008.5
20260504232010 17 205 8.0 16.1 0.00 0.00 0.00 39 1008.3
20260504231528 17 205 11.3 17.7 0.00 0.00 0.00 39 1008.2
20260504231007 17 195 9.7 17.7 0.00 0.00 0.00 39 1008.1
20260504230508 17 175 9.7 22.5 0.00 0.00 0.00 39 1008.0
20260504230016 17 205 12.9 24.1 0.00 0.00 0.00 37 1007.8
20260504225505 17 217 12.9 24.1 0.00 0.00 0.00 38 1007.8
20260504225006 17 263 9.7 17.7 0.00 0.00 0.00 39 1007.9
20260504224525 17 189 6.4 17.7 0.00 0.00 0.00 38 1007.8
20260504224009 18 204 9.7 17.7 0.00 0.00 0.00 37 1007.9
20260504223513 18 186 8.0 25.7 0.00 0.00 0.00 37 1007.8
20260504223024 18 186 12.9 25.7 0.00 0.00 0.00 37 1007.8
20260504222509 18 181 11.3 27.4 0.00 0.00 0.00 37 1007.8
20260504222010 18 240 11.3 27.4 0.00 0.00 0.00 36 1007.9
20260504221527 18 195 9.7 25.7 0.00 0.00 0.00 37 1007.8
20260504221008 18 177 12.9 25.7 0.00 0.00 0.00 36 1008.0
20260504220510 18 198 12.9 22.5 0.00 0.00 0.00 37 1007.9
20260504220027 18 194 11.3 22.5 0.00 0.00 0.00 36 1008.0
20260504215508 18 231 8.0 30.6 0.00 0.00 0.00 36 1008.0
20260504215009 18 208 14.5 30.6 0.00 0.00 0.00 36 1008.1
20260504214519 18 209 14.5 29.0 0.00 0.00 0.00 37 1008.1
20260504214008 18 200 11.3 29.0 0.00 0.00 0.00 36 1008.2
20260504213510 18 223 8.0 33.8 0.00 0.00 0.00 36 1008.2
20260504213024 18 224 14.5 32.2 0.00 0.00 0.00 35 1008.2
20260504212507 18 216 24.1 32.2 0.00 0.00 0.00 35 1008.2
20260504212015 18 209 11.3 25.7 0.00 0.00 0.00 36 1008.2
20260504211525 18 202 14.5 24.1 0.00 0.00 0.00 36 1008.2
20260504211008 18 222 16.1 32.2 0.00 0.00 0.00 35 1008.2
20260504210511 18 232 19.3 33.8 0.00 0.00 0.00 35 1008.4
20260504210016 19 203 12.9 33.8 0.00 0.00 0.00 35 1008.3
20260504205504 19 187 9.7 30.6 0.00 0.00 0.00 35 1008.2
20260504205003 19 225 14.5 30.6 0.00 0.00 0.00 35 1008.2
20260504204528 19 227 11.3 27.4 0.00 0.00 0.00 36 1008.3
20260504204008 19 193 6.4 27.4 0.00 0.00 0.00 36 1008.3
20260504203506 19 194 6.4 29.0 0.00 0.00 0.00 35 1008.3
20260504203026 19 195 12.9 29.0 0.00 0.00 0.00 34 1008.3
20260504202507 19 180 16.1 25.7 0.00 0.00 0.00 34 1008.5
20260504202006 19 205 6.4 37.0 0.00 0.00 0.00 34 1008.3
20260504201524 19 295 14.5 35.4 0.00 0.00 0.00 36 1008.4
20260504201012 19 234 12.9 35.4 0.00 0.00 0.00 36 1008.6
20260504200510 20 224 11.3 29.0 0.00 0.00 0.00 35 1008.7
20260504200028 19 237 6.4 30.6 0.00 0.00 0.00 37 1008.7
20260504195507 19 215 8.0 30.6 0.00 0.00 0.00 35 1008.6
20260504195004 19 110 9.7 32.2 0.00 0.00 0.00 36 1009.0
20260504194515 19 211 12.9 32.2 0.00 0.00 0.00 38 1008.9
20260504194004 19 306 11.3 22.5 0.00 0.00 0.00 37 1008.9
20260504193504 19 211 6.4 30.6 0.00 0.00 0.00 37 1008.9
20260504193020 19 230 19.3 29.0 0.00 0.00 0.00 34 1008.9
20260504192505 19 270 16.1 27.4 0.00 0.00 0.00 34 1008.8
20260504192007 19 216 6.4 33.8 0.00 0.00 0.00 36 1008.7
20260504191523 19 290 8.0 33.8 0.00 0.00 0.00 36 1008.9
20260504191008 19 192 8.0 29.0 0.00 0.00 0.00 37 1008.9
20260504190508 18 169 14.5 30.6 0.00 0.00 0.00 36 1008.9
20260504190025 18 148 12.9 30.6 0.00 0.00 0.00 37 1008.9
20260504185510 18 212 16.1 29.0 0.00 0.00 0.00 36 1009.0
20260504185008 18 194 9.7 25.7 0.00 0.00 0.00 37 1009.1
20260504184528 18 184 6.4 27.4 0.00 0.00 0.00 38 1009.0
20260504184004 18 160 11.3 29.0 0.00 0.00 0.00 37 1009.1
20260504183506 18 224 8.0 37.0 0.00 0.00 0.00 36 1009.2
20260504183017 18 234 12.9 32.2 0.00 0.00 0.00 37 1009.0
20260504182508 18 337 8.0 29.0 0.00 0.00 0.00 36 1009.0
20260504182008 18 218 9.7 32.2 0.00 0.00 0.00 40 1009.2
20260504181521 18 246 12.9 32.2 0.00 0.00 0.00 39 1009.1
20260504181003 18 227 11.3 30.6 0.00 0.00 0.00 38 1009.1
20260504180502 18 345 17.7 30.6 0.00 0.00 0.00 37 1009.3
20260504180008 18 198 11.3 20.9 0.00 0.00 0.00 36 1009.2
20260504175503 18 196 8.0 32.2 0.00 0.00 0.00 37 1009.3
20260504175004 18 325 11.3 32.2 0.00 0.00 0.00 37 1009.3
20260504174510 18 221 14.5 30.6 0.00 0.00 0.00 38 1009.3
20260504174005 18 187 12.9 29.0 0.00 0.00 0.00 39 1009.3
20260504173505 18 180 11.3 27.4 0.00 0.00 0.00 37 1009.4
20260504173013 18 227 9.7 35.4 0.00 0.00 0.00 38 1009.4
20260504172505 17 196 6.4 35.4 0.00 0.00 0.00 37 1009.5
20260504172008 17 244 11.3 24.1 0.00 0.00 0.00 39 1009.4
20260504171521 17 183 9.7 24.1 0.00 0.00 0.00 38 1009.6
20260504171003 17 31 14.5 25.7 0.00 0.00 0.00 40 1009.7
20260504170505 17 191 11.3 38.6 0.00 0.00 0.00 38 1009.7
20260504151005 15 294 12.9 40.2 0.00 0.00 0.00 40 1010.6
20260504150509 15 234 16.1 41.8 0.00 0.00 0.00 39 1010.5
20260504141006 13 244 8.0 32.2 0.00 0.00 0.00 42 1011.0
20260504140507 13 185 14.5 32.2 0.00 0.00 0.00 41 1011.0